Terug naar catalogus

KSLV-II DUMMY

ActiefWetenschapSSO
NORAD 52895·PAYLOAD·🇰🇷 South Korea

Gelanceerd Jun 21, 2022 vanaf Naro Space Center

Loading…

Volgende Passages (komende 24 uur)

TLE

VersSource: Space-Track

Epoch: Sep 14, 2026, 14:56 UTC

1 52895U 22065B   26257.62268671  .00000012  00000-0  12632-4 0  9995
2 52895  98.2484  36.7430 0009425 115.0701 245.1478 14.58702089225390

Volg KSLV-II DUMMY in realtime met AllMySat

Download on the App Store